Theta_e
303 303 304 304 304 304 305 305 305 304 304 300 298 302 299 302 297 311 313 314 309 301 292 294 291 291 295 299 297 298 297 295 296 295 297 293 295 293 294 293 291 293 292 292 291 292 289 291 292 296 297 298 301 303 304 303 303 300 294 298 299 303 287 287 289 293 295 297 300 300 301 299 295 296 298 295 292 292 288 288 288 285 288 284 283 284 289
303 303 304 304 304 304 305 305 305 305 304 300 300 298 297 299 300 304 311 313 310 297 283 284 284 291 295 296 295 298 296 295 294 294 294 294 292 292 292 293 295 292 295 292 290 294 284 294 293 293 297 295 303 302 302 304 299 300 299 293 299 288 289 288 281 282 284 287 292 293 297 296 292 291 294 297 297 297 296 294 289 283 286 288 282 280 284
303 303 304 304 304 304 305 305 305 305 305 304 300 296 300 298 303 302 305 308 305 293 295 291 286 290 291 292 291 293 295 297 296 295 294 296 293 293 292 293 294 292 294 292 294 294 292 291 297 296 297 296 301 302 301 302 299 301 302 305 301 290 289 287 280 278 276 276 277 281 283 288 293 295 294 297 296 295 291 283 284 280 286 290 285 284 292
302 303 303 304 304 304 305 305 305 305 305 304 301 301 298 296 285 294 297 300 301 301 303 298 293 288 290 285 291 293 291 296 297 297 295 296 295 293 294 295 295 292 292 291 291 291 295 292 295 294 293 297 299 301 301 302 300 308 312 310 302 291 295 292 287 284 283 284 287 294 293 290 287 291 293 294 297 296 294 288 283 281 284 283 289 291 292
302 303 303 304 304 304 305 305 304 304 304 304 300 301 299 300 289 288 283 295 294 294 296 295 294 287 294 284 292 290 291 293 295 298 292 296 295 295 294 293 291 291 291 289 291 292 292 298 296 295 295 297 298 301 301 301 305 310 303 307 298 294 286 292 294 293 292 293 293 295 295 292 292 291 291 294 295 295 292 286 283 292 284 281 289 294 291
302 303 303 303 304 304 305 305 305 304 303 304 304 298 301 290 293 296 297 291 284 285 286 294 293 294 295 290 295 291 290 291 288 296 296 296 297 291 293 295 294 294 293 293 286 292 293 294 290 296 296 296 298 297 300 299 305 305 300 302 297 292 285 293 293 294 294 294 294 294 293 294 294 293 292 292 294 294 290 290 293 292 282 282 291 292 292
302 302 303 303 304 304 305 305 305 304 302 305 304 298 298 296 296 297 300 290 292 291 293 296 293 291 292 290 292 290 290 288 291 292 293 294 293 294 283 291 293 294 295 293 290 290 285 284 294 292 292 294 294 292 297 300 302 300 299 299 301 296 286 294 294 292 293 293 294 294 292 292 293 294 293 293 293 293 294 293 294 295 291 294 295 295 295
302 302 303 303 304 304 305 305 305 304 302 308 304 297 294 292 291 290 297 296 292 294 293 294 291 286 292 285 289 290 289 289 291 294 292 286 291 294 291 291 293 294 293 291 287 289 291 290 285 295 293 293 295 294 295 293 299 299 298 299 301 296 286 293 294 290 291 292 293 292 292 293 290 292 293 294 296 295 294 293 293 294 293 294 294 293 292
302 302 302 303 303 304 305 305 305 303 303 304 302 297 297 299 301 299 293 288 290 292 291 289 289 284 286 284 289 291 290 289 292 292 295 292 290 292 290 292 293 294 292 291 290 291 292 293 292 295 294 288 298 292 293 300 295 299 297 298 295 295 287 294 292 283 285 292 292 291 291 291 290 290 291 292 291 288 291 287 293 290 289 289 290 289 289
301 302 302 303 303 304 305 305 305 304 304 301 301 297 300 299 302 302 297 286 293 288 290 288 287 282 288 290 289 289 290 292 293 285 294 295 295 294 293 293 291 291 290 289 290 293 293 294 295 296 296 297 297 298 298 300 296 295 297 299 291 293 289 284 285 283 283 291 293 292 290 287 284 285 289 291 292 292 294 295 295 292 290 285 285 286 294
301 301 302 303 303 304 305 305 305 304 303 298 298 299 299 295 294 297 297 288 285 288 287 286 286 289 292 293 292 293 292 291 292 285 285 293 293 295 294 292 289 287 289 291 295 295 296 297 298 298 297 296 296 296 298 300 300 300 296 293 292 295 291 285 290 282 283 289 290 290 283 277 280 290 294 294 292 291 289 288 293 295 294 290 292 292 294
301 301 302 302 303 304 305 305 305 306 303 301 302 301 301 302 301 299 290 284 283 289 287 284 286 290 290 292 293 292 291 290 291 294 289 292 293 294 294 292 291 282 293 297 297 297 298 299 298 298 297 297 296 297 298 296 297 301 301 293 291 290 290 285 291 284 283 286 285 281 276 279 288 294 295 295 297 296 294 294 295 295 295 294 294 292 290
301 301 302 302 303 304 304 305 305 306 305 303 302 300 303 305 302 298 293 286 282 286 283 287 291 292 292 290 291 292 294 294 295 295 295 291 292 293 295 292 291 292 297 295 296 296 292 292 293 295 294 295 295 296 296 296 296 300 300 299 293 287 285 286 286 285 286 283 282 277 278 287 291 292 295 296 296 294 294 293 295 296 296 296 292 290 290
301 301 302 302 303 303 304 305 305 306 306 304 301 302 302 303 299 296 292 287 284 287 289 287 289 290 291 290 289 293 294 292 292 295 293 294 291 291 294 293 294 295 296 296 294 293 287 287 283 285 287 291 290 290 293 295 296 295 297 299 298 294 292 287 284 287 282 282 281 281 286 284 287 287 288 291 287 289 288 283 286 294 296 291 288 288 289
301 301 302 302 303 303 304 305 305 306 306 305 303 304 302 302 302 299 299 294 285 285 287 281 286 290 291 291 291 287 287 289 292 290 295 296 293 294 294 295 296 296 296 293 288 290 286 285 281 281 283 282 278 281 291 289 295 296 295 294 297 296 287 287 286 283 285 282 280 281 279 277 280 288 292 294 295 295 295 290 286 296 294 292 290 288 289
302 301 302 302 303 303 304 305 305 305 305 305 303 303 303 304 304 302 299 293 285 281 284 291 292 292 288 289 291 288 284 283 286 289 291 293 291 292 294 295 298 298 297 293 291 286 284 281 280 280 279 281 287 284 280 289 288 294 295 296 294 296 295 289 284 283 282 282 280 279 276 279 285 286 290 292 295 295 295 288 283 294 296 292 291 289 290
301 301 302 302 303 303 304 304 305 305 305 305 301 303 302 306 303 299 297 296 287 282 291 292 294 292 287 286 289 287 288 283 287 283 284 285 289 291 293 295 296 296 294 290 288 284 282 282 285 283 285 288 283 280 287 286 284 285 292 293 291 289 285 286 284 281 282 281 279 277 281 281 287 290 292 294 297 295 290 280 280 293 294 293 292 290 290
301 301 301 302 302 303 304 304 304 305 305 305 303 301 301 305 305 303 299 295 285 284 289 293 290 286 285 286 286 290 291 290 289 290 285 289 290 289 291 293 290 296 297 286 285 282 281 281 279 280 280 289 289 287 277 285 281 282 282 284 282 284 284 284 282 282 283 283 280 283 283 288 291 290 292 293 296 294 282 278 284 291 293 294 293 292 292
301 301 301 302 302 303 303 304 304 305 305 305 304 304 303 304 305 303 298 293 289 282 290 294 295 292 292 294 291 292 291 290 288 283 282 283 286 292 293 294 294 286 293 285 288 282 280 282 288 284 280 283 288 280 286 280 281 286 286 281 282 283 284 284 284 281 281 282 281 281 282 286 289 291 293 294 290 282 280 290 294 293 292 294 294 292 293
301 301 301 302 302 302 303 304 304 305 305 306 304 300 303 306 306 304 298 292 292 287 290 291 293 290 293 290 286 286 288 289 288 284 282 280 289 292 289 284 290 291 287 289 284 287 282 280 281 286 281 282 284 289 282 282 287 283 284 285 281 282 281 281 281 282 282 282 279 278 275 285 293 292 289 291 285 285 292 293 293 294 292 292 292 293 292
302 301 301 301 302 302 303 303 304 305 305 305 304 301 303 304 304 304 304 299 293 284 287 296 295 292 293 292 293 292 290 286 286 284 286 286 290 287 280 279 285 286 282 283 282 282 283 280 281 281 286 284 284 284 279 280 283 288 287 285 284 287 281 281 282 285 279 278 276 277 284 287 293 291 283 288 290 293 294 293 291 293 293 292 292 292 293
301 301 301 301 302 302 303 303 304 304 305 305 304 303 300 303 306 305 306 303 292 286 290 297 296 293 295 296 296 294 293 293 295 294 288 284 289 287 286 288 289 288 289 288 285 283 285 284 286 281 280 282 286 280 283 279 278 284 288 286 279 287 284 285 281 284 281 280 282 288 291 291 292 292 291 291 293 295 295 293 292 290 290 292 291 291 291
301 301 301 301 301 302 302 303 304 304 304 305 303 300 299 303 303 304 303 297 298 298 299 296 297 295 297 297 298 298 297 298 299 297 295 289 284 287 286 286 286 292 292 291 285 285 286 285 280 285 282 282 281 279 283 281 279 281 280 287 286 290 291 290 287 284 289 290 291 293 291 290 291 292 293 292 292 293 293 292 290 290 290 291 290 291 292
300 300 301 301 301 302 302 303 303 304 304 304 303 299 300 302 303 300 300 299 291 289 289 293 289 284 290 292 295 296 297 296 298 298 299 295 284 284 289 292 294 293 290 292 291 286 284 285 286 286 280 283 285 280 278 278 277 282 283 283 287 287 290 288 283 287 285 280 289 289 289 290 290 290 292 292 292 292 293 293 292 291 292 292 292 292 292
300 300 300 301 301 301 302 302 303 303 303 304 303 303 304 304 301 300 297 288 287 287 284 284 286 294 296 296 299 296 296 298 300 298 300 297 293 288 286 291 296 291 290 292 292 287 284 282 283 281 279 285 285 279 283 280 279 285 280 281 283 283 289 286 286 284 283 283 288 290 291 291 291 291 289 289 290 291 292 292 292 292 293 293 293 292 291
300 300 300 300 301 301 302 302 303 303 303 304 303 300 299 300 301 302 300 298 297 292 286 283 289 299 297 295 295 296 300 299 298 300 299 298 298 296 295 295 295 298 295 296 292 285 283 282 282 281 279 280 287 281 279 284 283 286 283 280 287 287 288 281 287 283 285 289 290 290 291 290 291 291 291 290 290 290 291 291 292 292 291 291 292 292 291
299 300 300 300 301 301 302 302 303 303 303 303 302 301 302 303 304 299 296 295 291 286 286 283 289 294 296 295 298 298 299 298 297 297 297 297 297 297 296 293 292 291 291 288 292 285 284 282 281 281 283 283 287 286 285 281 283 280 280 285 288 286 281 285 285 282 281 283 286 289 284 283 288 290 290 290 291 292 291 292 292 292 291 292 291 291 291
299 300 300 300 301 301 302 302 302 302 303 303 302 302 303 304 301 301 301 300 294 286 286 285 286 291 296 294 297 297 298 297 296 297 295 296 298 298 295 293 291 290 289 285 282 282 281 280 280 282 283 284 283 282 286 286 285 282 282 283 286 283 285 282 281 281 282 289 291 292 290 289 290 291 292 292 293 292 292 292 291 291 291 291 290 289 289
299 300 300 300 301 301 302 302 302 302 303 302 300 301 303 306 302 302 301 304 301 296 290 290 293 292 285 291 298 295 297 297 298 297 297 296 297 297 293 294 290 289 291 285 283 282 281 282 284 281 281 286 283 280 281 279 279 278 282 286 287 287 289 288 288 288 289 291 292 292 290 288 290 293 293 293 294 293 291 290 289 289 289 289 289 290 289
300 300 300 301 301 302 302 302 302 302 303 300 300 299 294 297 302 300 301 304 302 299 289 285 282 283 295 296 296 296 296 297 299 298 299 295 294 293 292 291 288 292 291 285 283 280 282 283 283 287 290 291 281 280 279 279 278 280 287 287 288 289 290 291 291 288 286 292 292 293 292 292 293 293 292 293 294 292 290 288 288 287 288 289 288 288 288
300 300 301 301 301 302 302 302 302 303 302 299 298 290 289 286 296 303 302 303 303 299 289 288 284 288 288 295 295 293 294 295 294 295 296 295 295 295 295 293 290 290 282 283 282 282 283 279 281 286 288 286 284 280 279 277 278 280 285 287 287 287 288 289 290 291 291 292 293 293 292 292 292 292 292 291 290 291 289 288 290 292 289 288 287 287 287
300 300 301 301 302 302 302 303 303 302 301 300 295 293 292 294 298 302 303 304 302 298 289 285 283 283 284 288 295 296 296 298 300 297 294 295 293 295 295 294 288 293 288 284 284 283 281 283 281 283 284 287 286 280 281 279 278 279 285 286 287 288 289 288 289 291 292 292 291 289 287 287 290 288 286 289 290 290 290 289 289 288 290 290 289 288 288
300 301 302 302 303 303 303 303 302 301 299 302 303 303 302 301 302 302 304 302 300 294 296 287 283 282 282 287 294 297 297 294 294 294 292 294 293 292 289 294 293 293 297 286 282 281 285 283 283 280 286 289 281 281 277 278 281 284 287 287 288 288 288 288 289 290 290 290 290 286 285 287 288 290 290 290 291 289 288 288 290 290 288 287 287 287 287
301 301 302 303 303 303 302 302 303 302 302 300 299 301 303 302 302 303 302 301 298 297 292 285 281 281 282 291 288 292 297 289 289 291 283 292 294 291 286 290 291 283 288 283 284 284 284 284 281 282 285 281 282 280 276 279 286 286 286 287 287 287 287 287 287 288 289 289 289 289 288 289 290 288 288 288 287 288 289 288 288 288 287 287 287 288 289
301 302 302 303 302 302 302 300 301 301 298 299 302 301 303 301 301 300 302 300 289 287 285 284 285 282 282 283 282 287 297 292 286 288 284 288 295 290 290 283 285 282 283 292 283 283 282 282 286 281 280 284 280 278 278 281 285 286 286 287 287 287 287 286 287 289 290 290 290 288 288 288 287 286 287 287 288 289 289 289 288 286 285 286 288 288 288
301 302 302 303 303 302 302 302 298 299 299 298 300 304 302 303 304 303 304 306 299 288 285 284 284 282 283 281 280 284 295 290 291 291 291 286 288 293 291 284 281 283 289 286 281 284 281 287 284 278 283 279 278 280 281 285 285 287 287 287 288 290 288 288 289 290 291 293 292 291 290 287 286 286 287 288 288 288 287 286 286 287 287 287 287 288 287
301 302 303 303 302 300 296 294 302 301 298 301 304 304 303 303 305 303 302 300 302 300 290 284 284 284 285 282 284 284 290 281 288 286 287 284 282 284 286 282 281 283 283 282 282 281 284 289 282 279 279 277 279 285 287 287 286 285 286 286 288 289 289 289 290 290 289 290 290 289 289 288 287 287 287 287 288 287 286 285 286 286 286 287 286 286 287
302 303 300 299 298 290 289 292 299 304 303 303 303 301 300 298 289 290 291 289 295 296 288 291 285 287 290 286 282 290 289 283 288 283 284 286 283 283 285 282 282 283 278 280 283 288 285 283 280 279 279 285 286 287 287 288 288 287 286 287 288 289 289 289 290 289 286 285 285 287 288 289 288 288 288 288 287 286 284 286 287 287 287 287 286 285 284
302 299 298 298 295 288 289 296 305 301 302 303 303 292 288 289 287 285 284 285 285 284 287 287 284 288 287 285 286 292 289 284 282 285 281 287 282 279 282 278 282 282 279 279 280 289 279 280 281 279 278 283 284 286 289 289 289 289 289 288 289 288 289 290 291 290 288 287 287 289 288 287 286 286 287 287 287 287 287 287 287 286 286 286 285 285 284
300 296 291 292 290 292 300 302 300 301 300 291 291 288 283 286 284 280 286 283 283 285 287 282 289 288 289 285 284 284 292 287 281 281 282 284 289 281 282 282 283 280 275 276 280 287 279 274 279 278 277 281 283 288 289 289 288 288 288 289 289 289 289 290 291 291 291 292 291 290 290 290 288 287 286 286 286 284 286 286 286 286 286 285 285 285 284
298 299 298 291 299 300 299 301 302 300 292 288 285 284 283 280 284 285 283 281 282 283 289 288 290 288 289 289 288 284 291 293 290 289 285 280 286 286 281 278 283 278 276 276 282 283 281 278 278 276 278 283 284 286 287 287 287 288 289 289 289 288 289 289 291 292 291 290 290 290 291 290 288 287 288 288 287 286 284 285 286 286 286 286 285 286 285
295 295 297 299 299 302 300 297 293 288 285 286 281 279 282 282 284 284 284 281 282 284 286 288 284 285 285 287 287 289 287 292 288 285 283 280 284 282 279 281 282 276 273 281 283 282 280 275 276 278 283 286 288 288 287 286 287 287 288 288 289 289 289 289 290 290 290 290 290 291 291 289 288 288 288 288 287 287 286 286 286 286 286 287 288 287 286
300 300 299 297 297 291 291 286 288 286 278 278 277 277 280 279 280 281 282 285 287 286 286 296 291 292 293 294 290 292 287 292 285 284 283 281 285 283 280 279 277 273 278 284 281 278 275 275 276 280 285 285 286 285 286 287 287 287 287 289 288 289 290 290 289 290 290 291 292 291 290 289 289 289 289 289 288 286 287 287 286 286 286 287 286 287 286
299 300 296 292 288 287 287 277 286 283 280 281 278 275 277 278 281 283 281 281 283 284 288 287 287 288 283 288 287 286 286 288 288 285 283 284 282 279 278 276 277 282 285 280 278 274 276 280 281 283 285 287 289 285 286 287 287 286 287 288 288 289 289 289 289 290 290 290 289 290 291 290 289 289 288 290 287 287 286 286 287 288 288 288 287 286 287
292 288 288 284 282 284 282 272 283 280 276 278 282 281 282 280 282 283 282 285 289 287 289 290 288 287 284 290 289 287 286 283 287 282 279 282 279 280 278 277 282 282 278 274 276 277 278 277 282 284 286 285 286 286 286 286 286 286 286 287 287 288 288 289 289 289 290 290 290 290 289 289 289 288 287 289 288 289 288 287 287 287 287 287 287 287 287
288 285 283 277 272 278 281 277 279 278 282 284 283 286 284 285 286 286 291 293 289 289 287 288 287 287 284 288 283 283 286 285 282 282 284 282 278 277 282 284 282 276 274 275 272 273 275 280 282 282 284 284 285 285 287 287 288 288 287 287 288 289 289 288 288 289 290 290 291 290 290 289 288 288 288 288 289 288 288 288 288 288 288 287 287 286 287
289 287 287 284 278 281 283 279 279 282 285 287 287 288 288 288 289 289 290 291 289 290 290 290 289 289 284 284 285 285 286 285 281 283 283 278 279 282 284 278 272 274 271 270 273 276 279 282 283 283 285 285 285 286 288 287 288 287 288 288 289 289 289 289 288 289 289 291 291 292 290 289 289 289 289 288 288 289 289 289 289 289 288 288 289 288 288
284 287 286 277 275 281 279 281 287 289 290 289 289 290 290 291 289 287 289 291 291 291 289 289 285 285 285 288 289 283 284 285 282 283 283 281 283 280 278 276 274 276 277 275 277 280 280 282 283 283 286 287 286 287 288 289 288 289 289 288 288 288 289 287 288 288 289 290 291 290 291 291 290 289 288 288 287 288 289 289 289 290 289 289 289 288 288
288 285 282 281 283 284 283 286 287 285 287 289 288 288 288 288 287 288 290 290 290 289 289 288 285 285 283 285 284 283 281 284 279 279 282 280 275 272 274 272 273 271 278 281 281 283 284 284 286 286 287 287 287 289 288 289 289 288 289 288 288 288 288 289 289 289 290 290 290 291 292 290 290 290 290 291 288 288 289 289 289 289 290 289 288 287 287
286 284 286 284 283 285 287 288 286 284 286 287 287 287 287 288 288 290 293 292 290 290 289 288 287 283 284 284 281 282 281 283 282 283 280 278 278 279 277 274 277 277 279 283 283 283 284 285 286 286 287 287 287 288 288 290 289 288 289 289 289 289 289 288 288 290 290 290 290 291 291 291 292 293 292 290 290 290 290 290 290 289 289 289 289 288 288
289 286 286 290 285 283 285 282 283 283 284 285 286 287 287 287 287 289 292 292 292 287 285 284 285 284 283 281 279 275 279 283 281 279 278 278 282 279 275 275 279 282 283 284 285 285 285 286 285 284 285 286 287 288 288 289 289 289 290 290 289 289 289 289 290 289 290 291 290 289 291 290 291 292 291 291 291 290 290 290 290 290 288 289 289 289 287
285 283 283 286 290 289 289 289 288 286 287 289 288 290 290 289 291 291 294 291 288 284 283 285 284 283 281 279 281 283 284 282 280 280 277 281 283 279 280 281 282 283 283 283 283 284 285 285 285 285 286 287 287 287 288 290 290 290 289 289 290 289 289 289 290 290 290 290 291 291 291 291 292 292 291 291 290 289 288 287 289 289 289 289 288 289 289
Wind_Speed
20 22 22 23 23 22 21 23 22 19 20 7 5 4 2 2 2 2 5 4 5 1 1 3 2 2 4 8 10 9 9 8 10 14 13 13 3 4 3 4 7 5 6 9 8 7 4 5 4 6 5 5 8 4 6 3 4 3 4 8 4 3 1 1 3 4 5 4 7 8 14 11 11 11 10 11 9 5 8 9 9 4 2 4 1 3 1
21 22 22 22 23 23 23 23 22 18 14 6 6 2 2 3 2 2 2 6 5 5 0 3 5 5 8 9 10 7 9 11 11 8 10 9 6 6 4 4 3 5 7 7 10 12 4 3 5 1 2 2 4 5 3 7 1 4 2 3 4 3 5 3 1 2 6 8 7 5 6 8 3 3 6 11 10 14 3 3 2 5 5 10 3 4 3
21 22 22 22 23 23 22 23 20 17 13 7 2 1 2 4 3 3 0 0 4 3 1 3 1 4 5 5 6 7 7 6 10 11 9 10 7 4 3 8 8 5 5 8 10 11 6 3 4 1 1 2 3 5 4 8 4 4 2 0 2 4 4 2 1 3 2 2 3 2 3 3 0 4 11 13 14 10 6 3 1 2 2 4 6 3 2
21 22 23 23 23 23 23 22 21 19 13 8 2 3 2 2 1 1 2 2 3 2 1 2 1 2 4 4 5 8 7 7 6 12 9 8 10 3 3 5 6 6 7 5 6 12 11 12 1 3 1 1 1 3 6 3 4 5 8 3 1 1 1 0 1 2 5 6 4 1 2 3 5 6 12 12 11 11 5 3 4 2 2 4 3 12 10
21 22 23 23 23 23 24 23 23 22 15 6 3 2 2 3 1 1 2 1 5 0 2 1 2 2 2 2 5 6 7 5 7 8 2 11 11 10 3 5 6 5 7 5 4 4 7 13 13 8 6 5 2 3 2 4 6 9 4 3 1 1 1 4 1 2 3 5 5 4 2 4 5 9 9 13 12 7 11 5 2 4 2 3 1 12 12
21 22 23 22 23 24 24 24 25 25 23 9 5 1 2 1 1 2 1 1 2 2 2 2 1 5 5 2 5 5 8 8 4 6 5 7 9 5 8 10 13 14 8 4 5 8 4 7 4 7 6 6 7 3 9 10 12 7 4 4 2 0 1 3 5 3 3 6 7 5 2 4 5 9 7 10 10 11 9 2 3 1 2 5 6 7 9
21 22 22 22 23 24 24 25 26 28 28 11 5 1 3 2 2 2 1 1 3 3 3 2 5 5 5 0 4 5 8 7 8 5 7 7 6 10 3 8 12 11 12 6 4 9 5 5 3 3 4 5 4 5 5 6 12 11 10 6 6 3 3 3 5 3 4 5 8 4 4 4 4 7 7 9 8 7 6 3 8 8 5 14 13 12 11
21 22 22 22 23 23 23 25 26 28 30 13 2 5 3 4 3 3 4 2 2 2 1 2 6 5 6 3 5 6 7 7 8 7 6 4 5 8 6 11 9 7 8 9 5 5 4 4 3 4 3 6 2 0 1 2 5 8 5 6 8 4 2 6 2 3 3 5 9 6 2 5 2 4 9 8 4 7 5 4 6 11 15 10 12 15 10
21 20 21 22 22 23 23 23 24 26 25 6 6 3 4 2 3 2 3 5 3 2 3 4 5 2 2 3 4 3 8 6 8 7 7 6 5 7 9 11 8 4 8 7 7 9 7 7 6 6 5 3 3 1 2 2 4 7 7 4 6 6 3 7 5 2 1 2 3 5 4 4 5 7 6 5 5 5 2 3 1 5 7 7 8 7 5
20 20 21 21 21 22 22 22 22 22 18 3 4 4 4 4 3 4 2 2 5 1 4 4 2 2 1 1 3 3 7 7 7 2 6 10 10 8 7 6 6 3 5 6 7 10 11 10 8 5 8 7 10 4 7 9 8 7 7 4 3 3 1 3 4 6 2 7 10 5 6 6 5 7 10 11 4 7 6 7 8 6 9 6 6 1 6
19 20 20 21 21 21 22 21 20 20 12 6 4 3 4 5 5 5 1 1 5 4 4 3 1 1 3 2 2 4 4 7 4 4 2 6 7 8 6 5 4 4 3 5 9 10 11 11 10 6 7 9 10 7 4 9 8 8 7 4 2 5 7 2 0 2 3 10 7 6 4 3 0 1 9 8 7 4 7 4 5 5 3 4 6 8 8
19 20 20 21 21 21 21 21 20 18 12 4 2 3 3 4 4 2 1 1 3 7 4 2 5 4 4 1 2 1 3 3 4 4 2 1 5 4 5 4 3 3 5 8 9 9 13 13 14 12 10 9 9 8 8 5 5 5 4 6 3 4 6 5 2 2 1 2 3 5 0 1 1 4 9 13 8 12 10 7 8 8 11 14 13 12 11
19 19 20 20 21 21 21 21 20 19 18 8 2 2 4 5 3 3 2 2 4 6 6 6 10 10 12 5 3 3 2 1 1 3 2 2 3 4 2 3 3 4 8 10 12 11 7 5 3 2 4 8 8 3 10 11 11 8 5 6 7 4 5 3 2 2 0 2 2 1 1 1 1 2 9 14 9 10 9 10 6 4 10 12 11 11 13
18 18 19 19 20 21 21 22 21 21 20 13 6 3 3 6 5 4 3 2 3 5 4 4 9 9 10 5 8 1 2 4 4 3 1 1 1 1 3 3 2 5 6 7 7 5 4 3 2 3 5 6 4 5 10 8 10 13 8 6 3 5 2 1 1 2 2 1 3 3 2 1 7 3 5 8 5 5 3 3 5 10 0 12 14 11 11
19 18 18 19 20 20 21 21 21 22 21 20 4 4 4 5 3 2 2 1 1 4 6 5 7 8 8 8 8 7 5 5 3 5 3 1 1 0 2 2 3 3 6 4 4 3 0 0 2 2 2 5 3 2 4 6 6 12 10 11 3 2 2 1 3 2 2 4 3 2 1 0 1 2 3 6 6 7 5 4 3 9 9 12 14 14 12
19 19 19 19 19 19 20 20 20 20 20 21 7 5 3 4 2 1 0 1 2 5 7 5 6 6 5 6 9 7 6 5 7 7 2 2 4 3 4 3 3 3 3 3 2 3 2 2 1 3 3 1 1 2 2 4 3 4 5 9 14 9 6 5 3 1 3 2 1 1 1 1 3 5 2 5 7 8 8 4 4 3 4 8 13 12 9
18 19 19 19 20 19 19 19 19 20 18 18 7 5 3 6 4 4 1 2 6 4 5 8 5 5 4 5 7 7 6 5 7 5 5 4 7 8 8 5 3 4 5 2 3 3 4 1 3 2 2 3 1 3 2 1 2 6 10 8 13 9 6 7 4 2 3 0 3 2 2 1 4 7 5 4 3 8 2 4 2 3 8 8 10 11 9
18 19 18 19 19 20 20 19 20 20 20 22 10 3 3 4 5 6 1 2 3 3 4 7 6 6 5 4 4 5 4 4 6 4 3 6 6 8 11 4 7 5 7 4 3 2 3 0 4 2 2 1 1 2 0 0 2 1 3 3 4 5 4 6 5 2 1 3 3 3 2 1 3 5 9 8 2 2 3 3 2 2 7 6 8 9 7
17 18 18 18 19 20 20 19 19 19 18 20 12 4 2 5 6 6 3 4 3 4 5 7 6 6 5 5 4 4 5 5 5 4 6 7 4 13 15 5 6 4 7 4 3 1 3 3 1 2 1 1 2 2 1 2 0 3 6 3 3 3 0 2 2 4 3 2 4 3 1 3 5 10 7 7 1 3 3 3 4 8 10 10 10 10 8
17 18 18 18 18 19 19 20 20 19 19 19 10 1 7 5 4 6 5 3 2 4 3 5 5 7 4 7 6 6 6 6 6 4 5 4 9 13 7 7 8 5 7 6 7 5 3 5 4 1 3 1 2 1 2 5 6 4 2 3 3 1 2 2 2 3 1 3 4 1 2 3 6 7 4 8 5 2 5 7 8 8 11 11 10 10 10
17 17 18 18 18 18 19 19 20 20 20 21 13 3 4 3 5 6 3 1 1 3 3 2 4 5 4 5 4 4 5 5 5 5 4 3 7 3 4 2 6 4 4 3 4 5 3 4 5 2 3 2 3 2 1 1 3 5 3 3 3 4 3 1 1 1 1 2 2 2 1 2 8 8 5 2 1 1 5 8 9 8 7 9 9 9 8
16 16 17 17 17 18 18 19 19 19 19 20 17 4 2 6 5 6 7 4 2 2 3 3 2 4 4 3 3 4 4 4 4 2 3 5 5 5 1 3 5 3 1 2 2 3 4 2 2 3 5 4 3 3 6 5 4 1 4 4 3 4 4 2 4 3 2 2 3 2 2 5 8 8 8 8 10 10 9 10 9 9 9 8 9 6 6
15 16 17 17 17 18 18 18 18 18 18 19 12 3 2 6 7 7 5 3 1 0 0 3 1 3 2 6 5 4 3 3 2 3 3 3 3 4 6 5 5 3 1 2 2 1 4 3 2 0 3 4 3 3 7 4 2 3 3 2 6 5 9 9 7 7 7 7 5 6 7 9 10 9 8 10 11 11 11 12 11 8 8 7 8 8 9
14 15 16 17 16 17 17 17 18 17 18 17 9 3 3 5 6 6 6 2 2 1 2 4 4 2 1 4 4 4 4 2 3 3 3 4 3 3 1 1 0 2 2 4 1 1 3 1 3 2 4 3 4 5 5 5 3 3 4 3 2 4 3 4 6 6 5 3 4 7 7 6 6 10 10 10 9 8 8 9 9 8 9 10 10 10 10
15 15 15 16 16 16 17 17 17 17 17 17 14 4 4 3 2 5 4 3 4 2 0 1 2 1 2 4 0 1 3 3 2 4 2 4 3 2 2 3 1 1 4 6 3 4 2 3 5 4 4 2 4 3 3 3 3 3 5 3 2 3 3 7 5 4 4 5 5 5 6 5 6 7 8 8 7 7 7 7 7 7 7 7 8 8 8
14 14 15 15 15 15 16 16 17 16 16 17 11 4 3 4 3 4 1 1 1 1 0 1 1 0 1 3 2 4 5 5 6 3 4 3 2 1 3 3 1 2 3 3 2 5 4 3 3 3 3 2 3 2 3 3 4 5 7 4 1 2 4 3 2 5 5 7 6 6 6 8 9 9 8 7 6 7 5 5 7 8 9 9 8 7 6
14 14 14 14 15 15 15 16 16 15 16 15 9 5 4 6 2 6 3 2 2 1 4 2 1 2 2 3 1 3 5 5 5 5 4 4 3 2 3 5 5 5 5 6 1 3 3 3 4 3 2 1 2 2 1 3 5 3 3 3 4 7 5 3 7 7 3 2 5 5 5 4 5 7 6 5 5 5 6 6 6 7 7 5 6 5 5
14 14 15 14 15 15 15 16 14 15 14 15 8 6 5 2 4 6 5 5 3 1 0 2 1 0 3 3 3 5 4 4 3 4 4 3 3 2 4 4 4 4 4 4 5 4 3 6 3 2 1 2 5 4 5 1 3 5 5 3 2 5 3 3 3 3 1 4 6 2 6 5 5 6 5 6 5 6 5 5 5 6 6 6 7 7 6
14 15 14 15 15 15 15 15 14 13 14 11 5 5 5 2 5 6 6 5 2 1 2 3 2 1 1 1 2 2 4 4 2 1 2 4 3 3 4 4 4 5 3 1 1 3 3 3 0 2 1 1 1 3 4 5 4 4 1 3 4 3 4 7 9 8 5 3 0 5 7 6 6 6 4 4 3 7 11 10 10 6 4 4 7 7 6
15 15 15 15 15 15 15 13 13 12 11 5 3 1 0 1 3 5 5 4 3 1 0 2 2 1 1 2 2 4 3 3 1 2 2 1 3 3 5 4 4 4 2 1 2 3 1 2 1 1 1 1 1 1 2 2 4 3 1 4 5 7 7 8 6 6 5 5 7 6 7 6 5 8 8 8 9 10 8 8 6 5 5 7 7 7 9
15 16 16 16 16 15 14 13 11 12 9 2 1 0 0 0 1 3 6 4 4 1 0 1 2 1 2 1 0 2 6 2 1 1 3 4 3 2 2 3 3 3 5 6 3 1 1 2 1 1 0 2 2 2 1 2 3 1 4 5 5 5 4 5 6 6 6 7 7 6 4 3 4 8 7 5 5 7 5 4 5 6 5 3 4 5 4
16 16 15 16 15 13 12 10 9 8 5 3 2 1 1 1 2 6 7 5 4 1 0 2 1 1 0 1 0 0 2 3 1 1 1 3 3 4 1 4 0 1 2 0 1 1 1 0 1 1 2 2 2 1 2 3 3 2 3 8 6 7 7 6 4 5 5 4 4 6 6 6 6 6 3 4 3 5 5 4 5 5 5 6 7 5 5
15 15 15 15 14 12 10 8 6 3 2 4 8 8 9 8 8 8 5 4 1 1 1 0 1 1 1 2 1 0 3 2 2 3 0 2 1 1 0 1 3 1 1 2 2 1 1 1 1 2 0 0 1 1 2 1 3 4 7 6 7 6 5 4 5 5 7 9 8 6 3 3 4 5 6 4 5 5 3 4 5 4 3 3 4 5 5
15 15 15 14 12 9 7 7 7 5 4 2 1 2 2 2 6 6 4 1 1 1 0 0 1 1 0 2 1 1 1 1 2 1 1 3 1 1 1 2 0 2 2 1 1 1 2 3 2 1 1 1 0 1 1 2 3 6 6 8 7 6 4 4 4 5 6 6 5 6 5 4 4 4 4 4 4 4 4 5 4 2 2 2 3 4 5
16 15 15 13 10 8 8 5 2 2 1 3 0 1 0 2 4 5 2 1 2 0 0 1 0 1 0 0 1 1 2 2 2 2 2 1 0 2 1 1 1 1 3 0 1 1 2 1 0 2 1 0 1 0 0 1 6 5 6 4 5 6 4 2 2 6 5 4 4 3 2 2 2 3 3 4 4 4 6 5 4 4 3 3 1 5 4
16 15 14 12 10 6 2 1 1 2 1 0 0 2 2 5 5 3 2 1 1 0 0 2 0 1 0 3 0 1 2 1 2 1 1 0 1 1 1 1 3 1 2 0 0 3 2 2 1 2 0 1 1 1 4 5 6 6 7 6 2 3 4 5 7 6 6 6 6 4 4 4 4 0 2 1 4 7 6 5 4 1 1 0 4 4 4
16 15 13 9 3 1 1 2 2 1 1 1 3 7 8 4 2 1 1 1 1 0 1 0 2 2 1 2 0 1 1 1 1 1 2 2 1 1 1 2 1 1 2 1 3 2 2 1 3 0 0 1 2 4 8 9 7 5 4 4 4 4 4 4 7 9 6 5 5 1 0 2 5 2 1 2 7 6 6 4 2 1 3 1 3 4 5
14 9 3 1 0 0 1 0 1 0 3 6 5 3 0 1 0 0 0 1 1 2 1 0 1 3 2 4 2 2 0 3 3 1 1 1 2 1 1 1 0 1 3 1 0 2 1 0 1 2 3 6 7 7 6 6 6 5 4 5 5 6 4 6 8 7 6 4 3 0 2 2 3 2 2 2 7 5 5 4 1 3 3 3 3 4 3
3 0 1 2 1 1 0 1 1 3 1 3 0 0 0 0 0 0 1 1 1 1 2 2 2 3 4 3 1 2 2 1 2 1 2 0 1 2 2 2 1 1 1 1 2 3 2 2 1 3 3 4 4 4 4 5 5 4 5 5 5 4 4 2 2 6 5 5 5 3 4 2 1 2 4 3 3 5 6 5 4 3 5 5 4 1 2
1 1 1 1 0 0 1 2 2 0 1 1 0 1 0 0 0 0 0 0 0 0 1 1 1 1 1 2 1 1 4 2 3 2 1 1 1 1 1 0 0 1 1 1 1 1 1 2 2 3 1 3 2 4 5 5 5 5 5 6 6 7 7 6 2 3 5 4 6 5 2 1 2 3 3 3 1 4 4 5 4 5 5 4 4 5 6
1 2 1 2 2 1 2 2 1 0 0 0 0 0 0 1 1 0 1 1 1 0 0 0 0 1 2 2 4 2 2 0 1 0 0 1 2 0 1 1 0 0 0 1 0 1 0 1 0 2 1 1 2 5 6 7 7 7 6 5 6 5 5 6 4 1 5 4 3 1 1 2 4 3 1 1 2 1 4 5 5 5 7 5 2 1 3
1 2 2 4 5 5 1 0 0 0 0 0 0 0 0 1 0 1 0 1 1 0 2 1 2 2 1 2 2 1 0 1 0 0 0 1 1 1 0 1 1 1 0 1 1 1 1 1 1 3 1 2 6 5 5 5 5 6 6 4 5 4 5 5 6 3 6 6 3 3 3 4 4 2 1 1 3 4 4 5 5 4 3 1 1 0 5
12 8 3 3 1 0 1 1 1 0 1 1 1 1 1 0 1 2 1 0 1 1 1 1 1 1 1 1 1 1 1 0 1 1 1 0 0 0 1 1 1 1 1 2 1 1 1 1 2 1 1 4 3 3 2 2 3 4 5 3 4 3 4 4 5 3 4 3 2 2 3 3 1 1 2 2 5 4 3 1 2 4 4 3 3 3 4
6 3 2 1 1 0 0 0 0 1 1 0 1 1 1 1 2 1 1 0 0 2 1 1 2 2 1 1 1 0 2 1 1 0 0 1 0 1 1 0 0 0 0 0 0 1 1 3 0 0 5 3 3 3 3 5 4 4 4 5 3 1 3 3 3 5 1 4 1 1 0 1 0 1 2 0 3 6 4 3 1 1 1 1 2 3 6
1 0 1 1 1 0 1 2 2 0 1 1 1 2 1 1 3 3 3 2 1 3 2 1 2 5 3 0 1 1 1 1 0 1 0 0 1 0 0 1 1 1 0 1 1 1 1 2 4 2 2 3 2 2 3 4 4 3 2 2 4 5 4 5 6 4 6 6 2 3 2 2 1 2 4 1 1 6 5 4 3 3 2 3 2 3 3
0 1 1 2 3 3 0 1 1 1 1 1 2 0 4 5 4 4 1 1 2 2 3 5 4 3 2 1 1 0 0 1 0 0 0 1 1 0 1 0 0 1 1 1 1 1 1 3 3 2 3 3 2 2 3 3 3 4 4 2 1 1 4 2 2 2 2 3 6 2 0 3 4 3 0 1 0 2 5 5 5 6 5 3 3 1 2
1 1 0 0 1 0 0 1 2 2 1 2 5 6 7 6 4 3 2 3 6 4 3 3 3 2 1 2 2 1 1 1 0 0 1 0 0 0 1 2 0 0 1 1 1 1 1 2 3 3 3 3 3 3 3 3 3 2 2 3 2 2 3 2 2 2 1 1 3 6 2 1 3 3 1 1 1 1 1 1 2 5 4 1 0 1 0
1 0 0 1 1 1 2 3 3 1 5 5 5 4 4 4 5 5 5 3 5 6 6 3 3 5 2 1 1 0 0 1 0 1 1 0 0 0 1 0 0 1 1 1 0 2 1 1 2 3 2 2 2 2 3 5 3 3 5 5 5 1 4 4 4 4 3 1 1 2 5 6 9 8 4 4 4 3 2 1 2 0 1 2 2 2 3
1 0 0 1 1 0 2 5 4 2 4 4 5 5 3 5 6 4 4 3 5 5 3 1 1 0 1 1 0 0 0 1 1 0 0 1 1 0 0 0 0 2 1 2 1 0 0 2 1 1 2 2 0 1 1 1 1 3 2 3 4 5 5 0 3 3 3 3 3 4 1 2 3 3 7 8 4 3 3 4 3 2 3 3 3 4 4
1 0 0 1 2 2 5 2 5 4 3 4 2 2 5 7 5 3 2 2 2 1 3 1 2 1 0 0 1 2 1 0 0 0 0 0 1 0 1 2 2 2 1 2 1 2 1 0 1 1 1 1 2 1 3 1 2 4 4 3 3 4 2 3 2 4 4 4 4 5 4 3 2 1 5 4 1 3 4 1 1 2 4 4 4 4 3
0 0 1 1 1 3 2 4 4 2 3 3 1 2 3 5 3 2 3 2 1 2 0 0 1 1 0 0 1 0 0 1 1 1 1 1 1 0 1 1 0 1 2 3 2 2 2 3 3 2 3 4 4 4 4 3 3 3 3 3 2 1 4 2 2 3 5 7 5 6 6 6 5 5 3 5 4 2 4 2 4 5 4 4 5 4 4
0 1 2 2 5 5 1 2 2 3 5 5 5 1 4 5 2 3 0 2 1 1 1 0 0 0 0 1 0 0 0 0 0 1 1 1 2 0 0 0 1 2 3 3 2 2 3 3 3 2 2 3 4 4 3 3 3 4 4 3 1 1 2 1 2 3 6 3 4 6 5 4 5 5 5 3 3 4 5 2 2 3 4 4 4 4 5
Wind_Direction
340 338 338 339 340 340 338 338 340 342 345 354 0 315 286 196 265 147 177 169 163 205 328 300 321 268 266 285 276 301 306 307 320 314 314 311 344 7 336 341 350 341 343 340 313 308 309 311 138 174 129 182 222 175 156 65 29 70 333 3 300 29 341 258 328 355 338 339 3 27 46 38 17 18 19 21 5 275 182 178 186 150 358 45 34 70 87
341 340 340 339 340 337 337 338 340 341 355 341 307 298 289 311 296 337 232 161 194 91 356 318 315 321 327 324 314 293 288 293 285 297 328 318 342 347 333 319 337 319 351 340 320 310 298 328 105 124 147 168 243 226 287 132 135 112 224 111 294 31 306 103 4 1 351 345 355 6 39 50 66 11 24 14 8 17 341 95 80 98 191 150 151 188 202
343 342 342 339 338 335 335 336 336 339 341 335 321 312 309 283 268 176 130 96 85 74 332 352 332 309 318 316 315 326 308 318 336 320 306 316 305 350 340 344 335 324 338 314 308 293 291 317 31 122 29 108 214 207 138 135 145 144 152 349 354 100 237 31 116 132 147 221 243 239 4 337 21 34 29 30 23 354 19 78 51 98 289 124 116 116 127
344 344 342 340 337 336 333 334 333 335 340 323 225 258 309 297 15 344 83 10 78 86 288 104 240 300 317 349 320 333 323 318 326 337 319 325 314 277 338 301 328 313 315 311 319 319 348 323 178 32 248 79 255 200 147 141 137 81 92 45 54 167 279 329 164 149 194 199 167 213 139 55 63 26 31 27 29 15 33 64 66 115 155 82 177 145 143
347 345 343 340 338 336 336 335 334 331 336 320 210 245 212 298 43 20 348 323 38 35 48 23 71 333 282 356 341 342 341 346 319 355 310 353 1 355 353 335 339 321 325 307 296 346 343 17 39 25 18 298 313 187 306 151 102 68 43 3 113 127 71 269 325 27 133 130 127 144 82 105 72 51 34 36 34 39 55 65 215 258 75 45 16 135 122
348 346 343 341 340 340 338 337 336 336 336 337 188 284 200 223 154 116 189 107 281 27 332 6 8 26 12 0 320 12 358 2 23 298 3 8 15 24 332 14 21 12 342 353 15 347 35 34 17 3 26 326 339 354 31 54 20 25 150 192 115 331 37 261 112 255 154 135 120 119 109 95 111 75 47 47 38 41 51 23 277 270 138 170 138 112 108
349 346 344 343 343 342 341 340 343 341 335 339 177 6 329 88 346 64 88 57 208 161 199 95 65 33 7 169 316 355 15 15 2 353 353 356 27 24 18 355 18 5 2 31 41 16 20 353 349 33 3 352 331 6 343 21 48 36 14 11 39 19 213 268 169 208 217 147 132 139 139 118 114 107 85 67 56 55 43 10 4 61 80 126 117 98 88
349 347 345 345 344 344 345 345 349 345 341 338 114 54 24 20 350 334 333 293 253 160 133 104 82 63 5 20 341 349 6 18 355 1 29 10 7 8 32 355 5 2 10 30 44 355 16 343 338 321 35 335 292 133 85 264 10 30 42 356 12 31 288 320 245 171 236 144 137 145 133 107 113 115 95 77 85 82 61 35 6 53 56 51 96 105 97
350 348 347 346 344 347 348 350 353 351 347 30 5 31 26 329 14 323 334 323 303 89 38 39 95 65 352 42 333 4 349 17 5 357 7 23 1 14 9 4 338 10 14 17 10 342 334 320 307 312 313 278 263 122 269 126 69 20 11 6 351 33 303 347 10 47 343 85 110 111 69 71 70 58 45 64 77 69 45 60 325 97 98 61 30 66 96
352 351 349 346 346 349 351 353 355 357 343 40 343 4 332 356 330 13 355 294 284 29 47 31 52 28 195 325 343 353 4 354 12 359 360 1 358 359 10 1 348 352 18 4 333 315 310 298 292 288 285 277 280 232 182 162 152 161 180 152 131 127 49 33 22 29 330 346 41 34 97 63 39 6 345 323 303 124 94 86 92 115 123 86 99 285 39
353 353 351 348 348 350 352 353 355 1 5 30 349 318 335 25 329 325 90 104 315 36 89 27 67 200 155 42 8 22 18 342 4 53 333 358 339 349 6 357 9 308 344 321 305 293 289 288 287 274 254 273 281 278 185 191 168 160 151 121 171 141 105 40 8 104 315 357 14 45 49 73 128 295 315 320 279 162 114 112 127 126 97 158 143 133 99
354 354 352 349 350 351 351 352 353 358 11 325 265 261 307 333 291 269 19 68 13 13 24 42 349 3 34 42 160 47 3 349 3 1 317 343 298 346 353 330 27 309 312 310 301 299 293 278 259 246 252 261 262 276 273 258 106 141 114 124 120 86 101 147 180 98 235 187 51 48 353 141 261 332 333 346 6 102 102 98 96 102 107 112 118 116 106
355 355 352 352 351 351 351 351 353 355 359 349 299 272 328 353 6 353 355 29 36 19 12 14 3 7 342 8 47 186 240 301 41 332 344 351 318 358 331 315 348 311 311 298 306 305 308 305 305 281 238 229 229 260 7 33 39 50 26 91 112 127 123 146 62 165 178 75 79 140 178 204 310 344 4 355 9 26 80 87 70 96 135 128 104 110 113
357 356 354 353 352 352 352 352 352 352 355 359 342 302 327 13 19 360 38 34 15 28 9 13 3 349 334 27 2 335 256 293 289 336 334 286 342 302 287 354 320 281 288 297 294 316 343 17 25 12 353 360 15 46 326 34 43 64 36 336 39 139 74 60 63 347 152 164 80 97 100 33 2 13 6 352 359 345 359 107 356 332 336 106 114 107 110
356 357 356 355 354 353 353 354 353 353 353 356 322 317 5 12 33 4 300 162 171 45 30 32 331 334 344 17 2 7 349 332 345 291 204 227 215 173 342 305 292 325 308 326 338 335 320 301 26 40 3 38 40 317 337 28 343 30 31 31 8 103 112 245 88 299 59 103 95 77 30 144 321 295 290 337 342 337 348 91 30 14 56 108 114 122 127
354 356 356 355 355 354 355 354 355 355 357 353 355 349 318 358 350 339 62 273 73 42 347 3 355 348 9 12 359 9 346 344 352 334 312 230 36 344 20 334 355 327 326 355 325 334 337 78 22 67 43 102 148 41 328 327 347 350 30 42 42 26 52 104 108 182 38 47 107 112 110 151 250 274 281 318 326 342 321 83 45 294 97 111 113 117 125
355 355 356 355 354 355 355 357 356 356 357 2 339 326 318 355 19 342 356 345 76 68 360 16 9 15 14 0 359 360 354 21 345 353 338 357 24 356 346 342 336 350 352 36 352 32 8 4 74 95 79 349 54 158 182 16 7 344 333 28 36 34 8 18 21 51 9 91 87 87 58 50 311 320 330 337 326 315 334 66 166 169 142 127 122 126 132
356 356 356 356 354 353 354 356 359 357 357 355 356 321 298 335 360 355 355 75 90 55 5 30 33 24 22 5 4 348 358 0 351 314 19 324 6 346 326 342 349 3 356 36 5 26 340 117 85 72 87 262 240 56 62 2 44 259 10 56 36 7 2 37 45 18 136 94 75 92 103 353 301 297 304 295 312 354 75 147 134 22 89 113 114 118 126
356 356 356 356 355 354 353 355 358 358 359 359 344 329 310 342 3 30 40 17 48 62 23 40 53 58 23 21 19 13 21 16 359 14 333 351 352 323 309 91 7 352 358 355 331 62 28 356 79 113 106 352 355 100 133 42 346 71 38 47 51 29 66 343 28 26 30 67 80 82 66 248 253 286 284 290 348 83 127 91 132 94 85 91 105 107 98
356 357 356 356 355 354 353 353 355 357 358 357 360 271 272 303 21 54 44 20 312 91 24 48 36 56 52 36 12 22 355 25 20 24 18 337 302 327 0 7 349 15 360 5 22 336 38 3 342 9 65 75 351 332 50 57 49 38 67 85 97 293 72 45 32 317 2 45 105 109 74 330 314 307 359 4 78 72 97 102 82 88 89 90 89 95 98
355 356 356 356 355 355 354 353 353 355 357 356 355 338 330 350 16 12 49 74 271 84 1 12 82 64 57 80 60 35 42 38 19 9 322 295 289 342 56 9 330 346 12 4 8 338 356 357 351 359 26 62 329 53 49 136 54 11 68 95 68 350 78 51 47 309 94 43 61 103 99 338 354 48 97 0 11 355 72 86 80 57 73 87 91 78 84
355 356 356 356 356 355 354 353 353 354 355 357 350 332 340 336 349 8 338 344 96 139 203 236 151 135 107 91 137 114 75 32 70 42 3 335 336 56 92 12 356 353 30 339 23 346 1 330 5 31 29 359 358 29 330 66 44 346 25 58 49 356 98 106 97 330 86 120 129 143 110 57 54 70 79 65 45 53 66 74 71 72 56 57 67 66 72
354 355 355 354 354 354 353 352 351 351 353 356 2 26 302 323 337 341 353 340 299 9 108 285 331 49 93 88 48 8 109 102 102 69 37 43 344 32 57 20 347 320 0 56 99 234 270 2 302 79 40 45 350 317 38 79 117 17 64 59 142 112 112 99 84 68 76 73 91 104 68 65 66 61 63 63 60 53 63 75 79 67 75 62 73 68 68
351 351 352 351 351 352 351 350 349 348 349 351 358 320 322 312 296 351 349 323 80 20 346 350 65 344 32 41 36 26 6 72 87 127 102 81 75 345 352 51 259 342 343 305 233 220 274 303 268 44 81 345 4 43 42 27 28 354 43 24 48 53 52 73 102 159 99 84 71 84 98 101 86 81 72 64 59 59 64 74 77 83 75 74 67 66 64
346 347 348 349 348 349 348 347 346 345 344 348 347 291 256 280 338 9 25 15 344 34 147 328 16 243 346 82 37 93 74 21 55 74 72 88 88 83 342 270 198 174 279 288 324 25 6 52 12 26 62 330 54 13 20 81 343 52 92 4 25 356 36 79 68 75 91 133 121 99 95 96 93 89 82 80 76 71 69 78 83 88 86 87 91 87 78
344 345 346 346 346 345 346 343 343 341 341 341 346 330 336 306 339 10 41 12 276 186 144 151 250 117 5 59 33 63 46 51 353 46 61 51 91 307 273 325 7 184 224 282 349 28 7 31 47 43 55 311 37 52 3 355 75 44 85 38 0 89 27 101 143 94 82 89 109 120 102 77 75 84 87 93 105 107 100 89 90 88 89 86 80 84 91
341 342 341 342 341 342 342 339 339 338 337 340 333 315 302 301 5 52 50 323 12 8 14 40 176 157 118 91 312 72 60 50 2 5 8 51 16 356 17 12 7 348 4 346 335 83 36 52 62 14 28 293 346 272 355 11 44 53 41 355 4 50 37 28 78 102 103 157 140 117 112 120 100 99 120 131 138 124 120 116 110 108 106 103 94 76 68
338 338 337 338 339 338 338 335 335 337 338 332 315 291 277 284 58 35 13 14 67 132 208 280 327 204 300 13 30 85 56 77 22 8 351 8 22 27 32 4 21 7 348 35 15 34 52 53 357 291 69 343 33 340 331 291 87 44 49 29 27 91 97 96 90 118 142 117 138 171 123 117 127 138 151 159 147 133 138 136 135 133 134 128 114 112 109
336 335 334 334 335 335 333 331 332 334 335 330 304 299 297 93 71 53 13 340 351 43 272 238 229 49 104 237 322 47 116 91 73 71 331 345 355 20 16 1 37 352 337 26 35 87 89 108 64 65 69 232 92 319 0 22 65 85 70 67 78 96 75 97 119 119 137 175 209 116 127 139 153 149 135 85 91 98 81 75 64 50 40 99 134 143 154
333 332 331 332 332 331 328 328 331 331 334 318 311 299 32 355 18 51 1 347 328 352 49 11 46 257 305 38 6 343 337 106 78 357 13 27 339 341 45 38 28 341 350 38 75 58 335 111 11 43 43 22 102 279 52 13 72 71 45 59 47 62 67 74 84 94 103 95 84 76 82 87 88 96 93 86 86 94 90 79 79 68 55 65 74 75 74
330 329 328 328 327 325 324 325 329 328 331 307 296 5 42 71 295 49 5 339 314 7 224 126 231 260 81 198 180 12 298 91 110 352 314 304 248 240 84 82 28 28 43 357 35 28 49 45 358 72 145 30 98 69 19 52 71 8 57 78 64 69 77 97 103 113 120 122 125 127 124 115 117 92 67 76 102 101 103 106 95 100 107 88 84 81 69
328 328 326 325 323 322 322 325 335 338 305 325 36 102 162 232 260 324 325 308 321 352 57 354 324 92 37 314 298 208 288 17 310 115 333 355 9 16 24 98 119 38 104 68 252 26 19 263 89 351 54 329 58 37 40 80 118 202 98 78 66 55 42 46 55 64 72 81 120 104 67 53 77 108 125 103 86 109 113 132 137 124 111 105 100 109 110
323 323 321 322 322 325 326 326 339 348 301 291 262 269 277 283 309 305 305 314 299 210 292 64 238 237 135 227 243 209 14 337 302 126 62 302 48 52 29 139 143 77 269 86 343 90 219 99 122 50 275 20 66 11 55 95 183 143 119 110 96 83 68 41 47 61 66 64 63 89 97 89 102 130 142 123 90 88 83 101 133 128 126 97 113 124 129
324 323 322 324 325 327 324 312 296 279 268 312 346 211 192 253 286 263 286 245 258 302 19 150 316 344 186 322 38 301 336 32 302 43 47 308 323 60 348 336 292 78 324 85 221 73 335 58 49 150 27 355 33 70 32 304 108 86 96 107 107 96 96 81 85 87 72 61 67 82 84 77 87 87 89 103 131 143 132 100 90 78 100 136 180 147 140
322 323 323 324 325 316 307 302 297 223 263 254 251 89 95 261 281 296 319 8 36 357 351 276 148 290 91 21 56 290 324 349 15 15 110 263 356 351 326 35 329 75 282 269 0 147 95 306 212 60 202 283 49 7 237 17 43 70 81 85 106 120 111 101 82 86 82 76 75 84 98 126 140 158 177 170 198 148 104 84 76 68 37 337 21 123 127
321 320 321 319 311 295 272 209 226 242 227 277 345 193 218 292 294 269 243 305 111 113 29 290 180 246 286 111 97 281 326 353 335 345 140 99 34 291 47 89 32 268 227 149 128 12 85 256 70 7 253 53 303 116 90 70 64 55 59 58 86 123 166 163 128 96 82 71 66 51 36 10 346 86 128 148 101 96 90 74 60 50 310 141 96 99 104
318 316 309 301 272 213 249 232 198 232 213 222 285 314 297 293 235 216 216 180 236 199 206 229 354 293 133 140 117 300 21 45 284 2 9 40 279 277 25 37 91 276 21 8 42 36 266 254 99 286 46 241 238 127 95 82 70 59 46 62 26 33 55 88 108 113 108 109 96 45 106 251 269 249 211 121 116 113 102 112 109 255 272 164 107 76 66
311 303 315 296 276 309 249 356 291 269 26 310 311 333 290 70 0 294 166 210 196 131 266 184 303 309 9 66 44 291 10 318 7 60 10 288 22 338 14 98 241 71 4 42 293 216 265 346 155 138 40 26 55 58 61 78 79 69 50 42 41 39 43 124 132 124 134 128 127 170 334 339 319 334 327 136 131 120 128 128 166 203 153 120 108 112 109
261 260 226 270 272 324 342 256 80 44 331 276 148 33 293 183 79 260 217 158 69 333 256 78 348 20 66 76 60 352 71 321 315 11 64 296 87 326 29 33 304 67 338 37 304 351 17 337 356 54 32 326 15 357 32 58 64 66 62 49 52 38 44 52 144 139 131 140 149 161 213 212 128 37 3 49 110 142 160 162 205 163 106 84 76 80 100
198 184 225 202 149 251 232 90 36 335 21 17 280 111 312 209 114 1 309 46 319 305 47 49 250 68 69 90 104 335 332 44 32 23 17 345 66 116 291 326 343 64 352 48 283 353 73 345 343 62 0 313 7 5 44 44 49 45 64 57 37 27 8 18 41 153 136 171 148 188 156 113 106 97 63 350 136 163 176 176 152 125 103 118 135 121 133
302 289 333 35 345 219 219 179 201 353 92 258 308 326 23 347 289 158 70 253 189 198 259 107 326 52 8 20 43 74 292 11 339 16 147 112 257 105 24 4 245 39 318 44 282 33 43 355 8 98 223 245 46 31 33 39 37 28 34 52 48 22 9 349 354 212 100 87 43 0 127 95 79 75 44 67 80 208 189 151 146 137 132 141 139 218 174
326 272 333 310 278 268 286 340 70 327 308 323 99 274 192 195 342 6 223 81 54 79 21 31 19 30 17 18 345 101 83 293 224 118 93 64 292 92 173 302 3 92 28 317 333 324 20 3 21 61 287 41 76 46 31 41 42 42 20 42 50 16 9 357 345 68 77 70 28 328 46 72 73 39 325 115 126 76 75 92 100 102 120 143 167 122 125
292 261 192 261 246 254 137 243 235 153 96 348 44 14 313 92 201 211 143 71 229 97 237 265 130 122 52 0 38 89 153 278 53 341 35 99 269 69 52 14 44 346 277 319 30 336 13 296 70 180 233 63 40 62 5 20 71 71 40 26 74 19 2 10 20 15 92 68 162 108 48 35 338 190 65 67 115 97 85 65 112 146 157 198 204 215 148
252 218 182 221 180 256 126 9 30 39 357 16 129 160 222 256 234 212 97 75 0 56 336 102 222 159 250 289 135 342 47 3 30 52 0 353 62 6 64 237 168 253 91 333 6 19 304 72 265 143 91 68 43 13 19 35 39 44 34 3 13 47 6 16 56 355 15 151 244 133 102 138 135 129 147 25 132 142 143 173 209 217 197 226 241 208 138
337 126 176 17 12 246 59 324 301 126 228 194 197 238 182 106 88 65 114 220 114 169 234 322 7 38 83 237 26 26 80 149 325 96 269 46 10 267 131 315 10 15 346 282 317 280 54 41 288 343 103 95 79 19 33 57 40 71 58 353 11 12 18 55 44 39 349 346 342 65 28 351 17 107 123 270 232 150 147 175 183 194 239 244 269 290 168
244 152 110 84 351 301 237 203 159 240 251 206 209 223 74 70 89 92 57 353 87 111 75 40 23 55 345 161 126 189 306 131 66 200 168 109 105 305 54 12 64 7 358 354 8 12 131 231 271 331 69 96 66 17 20 41 34 38 21 9 317 77 92 97 117 92 17 313 300 290 348 25 4 351 306 144 268 171 172 195 179 182 207 198 170 193 186
267 335 59 16 68 231 147 215 208 219 230 117 60 66 87 98 82 75 30 37 55 36 73 58 14 80 32 330 15 341 76 75 118 290 59 38 161 356 75 86 16 9 341 314 317 11 47 295 340 338 27 30 44 29 32 47 34 343 289 269 294 114 152 153 159 179 183 45 11 353 338 249 256 248 271 320 259 218 203 176 173 189 179 158 179 135 86
305 211 139 103 236 172 195 239 232 237 61 72 68 69 76 77 80 55 24 35 72 50 39 26 10 3 351 322 91 201 251 110 35 291 139 197 46 81 44 40 241 240 161 199 132 131 210 320 339 331 343 67 68 13 24 360 330 18 356 350 340 355 177 187 196 196 180 144 95 19 343 4 7 342 298 244 237 233 204 218 255 202 143 160 181 239 246
213 53 314 237 228 224 231 236 205 148 98 84 89 93 76 74 83 75 46 46 49 62 75 71 91 52 299 302 286 306 343 49 81 303 15 80 98 204 121 238 1 294 285 111 145 190 176 202 221 276 327 2 337 258 246 167 357 348 326 327 323 327 316 248 191 189 206 221 173 159 182 11 317 337 339 310 312 299 234 205 192 205 205 196 186 193 241
31 320 289 280 313 306 316 335 68 72 59 69 40 69 86 92 96 60 10 69 90 48 19 36 78 85 294 31 347 29 325 71 231 42 73 292 193 175 116 245 183 204 311 45 130 162 170 345 46 340 304 281 299 309 301 277 253 257 253 247 256 277 262 138 155 176 203 211 207 200 175 178 182 33 294 294 310 309 325 242 169 238 211 197 194 210 233
265 186 254 230 258 277 41 22 9 58 98 115 64 53 83 92 100 51 346 26 70 73 135 199 127 173 285 20 63 342 342 35 22 266 166 237 125 170 170 229 269 23 163 186 158 144 99 71 44 12 0 349 333 325 312 310 301 308 306 264 260 319 323 293 237 217 201 209 202 166 182 201 194 170 219 288 316 353 337 299 202 231 235 216 213 211 201
199 225 249 242 231 244 171 172 158 98 98 91 89 80 76 90 102 145 214 1 57 103 284 70 77 38 140 221 170 23 51 269 259 12 11 314 66 289 269 99 37 31 40 19 18 27 55 51 63 34 347 301 290 284 311 323 326 310 295 304 275 221 262 321 350 0 349 322 181 195 210 207 190 198 196 224 304 300 271 276 345 309 264 259 247 217 213